Voltar ao catálogo

COSMOS 1291

AtivoMilitarLEO
NORAD 12640·PAYLOAD·🇷🇺 Russia

Lançado Aug 6, 1981 de Plesetsk Cosmodrome

Loading…

Próximas Passagens (próximas 24 horas)

TLE

AtualizadoSource: Space-Track

Época: Sep 14, 2026, 13:06 UTC

1 12640U 81074E   26257.54611182  .00000002  00000-0  11621-3 0  9999
2 12640  74.0347 180.9421 0003846 127.2712 342.8252 12.50888419 59655

Acompanhe COSMOS 1291 em tempo real com AllMySat

Download on the App Store